owner,sensor,date,latitude,longitude,dew_point_temperature,qcFlag 
ADCP,ioos:station:wmo:42362:1,2016-10-10T15:30:00Z,27.7950,-90.6480,21.1,11111222 
ADCP,ioos:station:wmo:42362:1,2016-10-10T16:30:00Z,27.7950,-90.6480,21.1,11111222 
ADCP,ioos:station:wmo:42362:1,2016-10-10T17:30:00Z,27.7950,-90.6480,20.6,11111222 
ADCP,ioos:station:wmo:42362:1,2016-10-10T18:30:00Z,27.7950,-90.6480,22.2,11111222 
ADCP,ioos:station:wmo:42362:1,2016-10-10T19:30:00Z,27.7950,-90.6480,20.0,11111222 
ADCP,ioos:station:wmo:42362:1,2016-10-10T20:30:00Z,27.7950,-90.6480,21.1,11111222 
ADCP,ioos:station:wmo:42362:1,2016-10-10T21:30:00Z,27.7950,-90.6480,20.6,11111222 
ADCP,ioos:station:wmo:42362:1,2016-10-10T22:30:00Z,27.7950,-90.6480,20.6,11111222 
ADCP,ioos:station:wmo:42362:1,2016-10-10T23:30:00Z,27.7950,-90.6480,20.6,11111222 
ADCP,ioos:station:wmo:42362:1,2016-10-11T00:30:00Z,27.7950,-90.6480,20.6,11111222 
ADCP,ioos:station:wmo:42362:1,2016-10-11T01:30:00Z,27.7950,-90.6480,20.6,11111222 
ADCP,ioos:station:wmo:42362:1,2016-10-11T02:30:00Z,27.7950,-90.6480,20.6,11111222 
ADCP,ioos:station:wmo:42362:1,2016-10-11T03:30:00Z,27.7950,-90.6480,20.0,11111222 
ADCP,ioos:station:wmo:42362:1,2016-10-11T04:30:00Z,27.7950,-90.6480,18.9,11111222 
ADCP,ioos:station:wmo:42362:1,2016-10-11T05:30:00Z,27.7950,-90.6480,17.2,11111222 
ADCP,ioos:station:wmo:42362:1,2016-10-11T06:30:00Z,27.7950,-90.6480,16.7,11111222 
ADCP,ioos:station:wmo:42362:1,2016-10-11T07:30:00Z,27.7950,-90.6480,16.7,11111222 
ADCP,ioos:station:wmo:42362:1,2016-10-11T08:30:00Z,27.7950,-90.6480,17.2,11111222 
ADCP,ioos:station:wmo:42362:1,2016-10-11T09:30:00Z,27.7950,-90.6480,16.7,11111222 
ADCP,ioos:station:wmo:42362:1,2016-10-11T10:30:00Z,27.7950,-90.6480,15.6,11111222 
ADCP,ioos:station:wmo:42362:1,2016-10-11T11:30:00Z,27.7950,-90.6480,16.1,11111222 
ADCP,ioos:station:wmo:42362:1,2016-10-11T12:30:00Z,27.7950,-90.6480,16.1,11111222 
ADCP,ioos:station:wmo:42362:1,2016-10-11T13:30:00Z,27.7950,-90.6480,14.4,11111222 
ADCP,ioos:station:wmo:42362:1,2016-10-11T14:30:00Z,27.7950,-90.6480,17.8,11111222 
ADCP,ioos:station:wmo:42362:1,2016-10-11T15:30:00Z,27.7950,-90.6480,16.7,11111222 
ADCP,ioos:station:wmo:42362:1,2016-10-11T16:30:00Z,27.7950,-90.6480,17.2,11111222 
ADCP,ioos:station:wmo:42362:1,2016-10-11T17:30:00Z,27.7950,-90.6480,18.9,11111222 
ADCP,ioos:station:wmo:42362:1,2016-10-11T18:30:00Z,27.7950,-90.6480,19.4,11111222 
ADCP,ioos:station:wmo:42362:1,2016-10-11T19:30:00Z,27.7950,-90.6480,20.6,11111222 
ADCP,ioos:station:wmo:42362:1,2016-10-11T20:30:00Z,27.7950,-90.6480,20.0,11111222 
ADCP,ioos:station:wmo:42362:1,2016-10-11T21:30:00Z,27.7950,-90.6480,20.0,11111222 
ADCP,ioos:station:wmo:42362:1,2016-10-11T22:30:00Z,27.7950,-90.6480,19.4,11111222 
ADCP,ioos:station:wmo:42362:1,2016-10-11T23:30:00Z,27.7950,-90.6480,20.0,11111222 
ADCP,ioos:station:wmo:42362:1,2016-10-12T00:30:00Z,27.7950,-90.6480,19.4,11111222 
ADCP,ioos:station:wmo:42362:1,2016-10-12T01:30:00Z,27.7950,-90.6480,18.3,11111222 
ADCP,ioos:station:wmo:42362:1,2016-10-12T02:30:00Z,27.7950,-90.6480,20.0,11111222 
ADCP,ioos:station:wmo:42362:1,2016-10-12T03:30:00Z,27.7950,-90.6480,20.0,11111222 
ADCP,ioos:station:wmo:42362:1,2016-10-12T04:30:00Z,27.7950,-90.6480,19.4,11111222 
ADCP,ioos:station:wmo:42362:1,2016-10-12T05:30:00Z,27.7950,-90.6480,18.9,11111222 
ADCP,ioos:station:wmo:42362:1,2016-10-12T06:30:00Z,27.7950,-90.6480,18.3,11111222 
ADCP,ioos:station:wmo:42362:1,2016-10-12T07:30:00Z,27.7950,-90.6480,17.8,11111222 
ADCP,ioos:station:wmo:42362:1,2016-10-12T08:30:00Z,27.7950,-90.6480,19.4,11111222 
ADCP,ioos:station:wmo:42362:1,2016-10-12T09:30:00Z,27.7950,-90.6480,18.3,11111222 
ADCP,ioos:station:wmo:42362:1,2016-10-12T10:30:00Z,27.7950,-90.6480,17.8,11111222 
ADCP,ioos:station:wmo:42362:1,2016-10-12T11:30:00Z,27.7950,-90.6480,17.8,11111222 
ADCP,ioos:station:wmo:42362:1,2016-10-12T12:30:00Z,27.7950,-90.6480,18.3,11111222 
ADCP,ioos:station:wmo:42362:1,2016-10-12T13:30:00Z,27.7950,-90.6480,18.9,11111222 
ADCP,ioos:station:wmo:42362:1,2016-10-12T14:30:00Z,27.7950,-90.6480,16.7,11111222 
ADCP,ioos:station:wmo:42362:1,2016-10-12T15:30:00Z,27.7950,-90.6480,16.1,11111222 
ADCP,ioos:station:wmo:42362:1,2016-10-12T16:30:00Z,27.7950,-90.6480,16.1,11111222 
ADCP,ioos:station:wmo:42362:1,2016-10-12T17:30:00Z,27.7950,-90.6480,17.8,11111222 
ADCP,ioos:station:wmo:42362:1,2016-10-12T18:30:00Z,27.7950,-90.6480,18.9,11111222 
ADCP,ioos:station:wmo:42362:1,2016-10-12T19:30:00Z,27.7950,-90.6480,18.3,11111222 
ADCP,ioos:station:wmo:42362:1,2016-10-12T20:30:00Z,27.7950,-90.6480,19.4,11111222 
ADCP,ioos:station:wmo:42362:1,2016-10-12T21:30:00Z,27.7950,-90.6480,20.0,11111222 
ADCP,ioos:station:wmo:42362:1,2016-10-12T22:30:00Z,27.7950,-90.6480,19.4,11111222 
ADCP,ioos:station:wmo:42362:1,2016-10-12T23:30:00Z,27.7950,-90.6480,19.4,11111222 
ADCP,ioos:station:wmo:42362:1,2016-10-13T00:30:00Z,27.7950,-90.6480,20.0,11111222 
ADCP,ioos:station:wmo:42362:1,2016-10-13T01:30:00Z,27.7950,-90.6480,20.0,11111222 
ADCP,ioos:station:wmo:42362:1,2016-10-13T02:30:00Z,27.7950,-90.6480,20.0,11111222 
ADCP,ioos:station:wmo:42362:1,2016-10-13T03:30:00Z,27.7950,-90.6480,19.4,11111222 
ADCP,ioos:station:wmo:42362:1,2016-10-13T04:30:00Z,27.7950,-90.6480,20.6,11111222 
ADCP,ioos:station:wmo:42362:1,2016-10-13T05:30:00Z,27.7950,-90.6480,21.1,11111222 
ADCP,ioos:station:wmo:42362:1,2016-10-13T06:30:00Z,27.7950,-90.6480,19.4,11111222 
ADCP,ioos:station:wmo:42362:1,2016-10-13T07:30:00Z,27.7950,-90.6480,18.9,11111222 
ADCP,ioos:station:wmo:42362:1,2016-10-13T08:30:00Z,27.7950,-90.6480,18.3,11111222 
ADCP,ioos:station:wmo:42362:1,2016-10-13T09:30:00Z,27.7950,-90.6480,17.8,11111222 
ADCP,ioos:station:wmo:42362:1,2016-10-13T10:30:00Z,27.7950,-90.6480,17.2,11111222 
ADCP,ioos:station:wmo:42362:1,2016-10-13T11:30:00Z,27.7950,-90.6480,17.2,11111222 
ADCP,ioos:station:wmo:42362:1,2016-10-13T12:30:00Z,27.7950,-90.6480,16.1,11111222 
ADCP,ioos:station:wmo:42362:1,2016-10-13T13:30:00Z,27.7950,-90.6480,16.1,11111222 
ADCP,ioos:station:wmo:42362:1,2016-10-13T14:30:00Z,27.7950,-90.6480,15.6,11111222 
ADCP,ioos:station:wmo:42362:1,2016-10-13T15:30:00Z,27.7950,-90.6480,16.7,11111222 
ADCP,ioos:station:wmo:42362:1,2016-10-13T16:30:00Z,27.7950,-90.6480,15.6,11111222 
ADCP,ioos:station:wmo:42362:1,2016-10-13T17:30:00Z,27.7950,-90.6480,16.7,11111222 
ADCP,ioos:station:wmo:42362:1,2016-10-13T18:30:00Z,27.7950,-90.6480,17.2,11111222 
ADCP,ioos:station:wmo:42362:1,2016-10-13T19:30:00Z,27.7950,-90.6480,15.6,11111222 
ADCP,ioos:station:wmo:42362:1,2016-10-13T20:30:00Z,27.7950,-90.6480,16.1,11111222 
ADCP,ioos:station:wmo:42362:1,2016-10-13T21:30:00Z,27.7950,-90.6480,17.8,11111222 
ADCP,ioos:station:wmo:42362:1,2016-10-13T22:30:00Z,27.7950,-90.6480,18.3,11111222 
ADCP,ioos:station:wmo:42362:1,2016-10-13T23:30:00Z,27.7950,-90.6480,18.9,11111222 
ADCP,ioos:station:wmo:42362:1,2016-10-14T00:30:00Z,27.7950,-90.6480,20.0,11111222 
ADCP,ioos:station:wmo:42362:1,2016-10-14T01:30:00Z,27.7950,-90.6480,18.9,11111222 
ADCP,ioos:station:wmo:42362:1,2016-10-14T02:30:00Z,27.7950,-90.6480,20.6,11111222 
ADCP,ioos:station:wmo:42362:1,2016-10-14T03:30:00Z,27.7950,-90.6480,20.6,11111222 
ADCP,ioos:station:wmo:42362:1,2016-10-14T04:30:00Z,27.7950,-90.6480,19.4,11111222 
ADCP,ioos:station:wmo:42362:1,2016-10-14T05:30:00Z,27.7950,-90.6480,20.0,11111222 
ADCP,ioos:station:wmo:42362:1,2016-10-14T06:30:00Z,27.7950,-90.6480,19.4,11111222 
ADCP,ioos:station:wmo:42362:1,2016-10-14T07:30:00Z,27.7950,-90.6480,20.0,11111222 
ADCP,ioos:station:wmo:42362:1,2016-10-14T08:30:00Z,27.7950,-90.6480,20.0,11111222 
ADCP,ioos:station:wmo:42362:1,2016-10-14T09:30:00Z,27.7950,-90.6480,20.0,11111222 
ADCP,ioos:station:wmo:42362:1,2016-10-14T10:30:00Z,27.7950,-90.6480,20.0,11111222 
ADCP,ioos:station:wmo:42362:1,2016-10-14T11:30:00Z,27.7950,-90.6480,18.9,11111222 
ADCP,ioos:station:wmo:42362:1,2016-10-14T12:30:00Z,27.7950,-90.6480,18.3,11111222 
ADCP,ioos:station:wmo:42362:1,2016-10-14T13:30:00Z,27.7950,-90.6480,17.8,11111222 
ADCP,ioos:station:wmo:42362:1,2016-10-14T14:30:00Z,27.7950,-90.6480,17.2,11111222 
ADCP,ioos:station:wmo:42362:1,2016-10-14T15:30:00Z,27.7950,-90.6480,17.8,11111222 
ADCP,ioos:station:wmo:42362:1,2016-10-14T16:30:00Z,27.7950,-90.6480,17.2,11111222 
ADCP,ioos:station:wmo:42362:1,2016-10-14T17:30:00Z,27.7950,-90.6480,17.2,11111222 
ADCP,ioos:station:wmo:42362:1,2016-10-14T18:30:00Z,27.7950,-90.6480,17.2,11111222 
ADCP,ioos:station:wmo:42362:1,2016-10-14T19:30:00Z,27.7950,-90.6480,17.2,11111222 
ADCP,ioos:station:wmo:42362:1,2016-10-14T20:30:00Z,27.7950,-90.6480,16.7,11111222 
ADCP,ioos:station:wmo:42362:1,2016-10-14T21:30:00Z,27.7950,-90.6480,17.8,11111222 
ADCP,ioos:station:wmo:42362:1,2016-10-14T22:30:00Z,27.7950,-90.6480,17.8,11111222 
ADCP,ioos:station:wmo:42362:1,2016-10-14T23:30:00Z,27.7950,-90.6480,17.8,11111222 
ADCP,ioos:station:wmo:42362:1,2016-10-15T00:30:00Z,27.7950,-90.6480,20.0,11111222 
ADCP,ioos:station:wmo:42362:1,2016-10-15T01:30:00Z,27.7950,-90.6480,21.1,11111222 
ADCP,ioos:station:wmo:42362:1,2016-10-15T02:30:00Z,27.7950,-90.6480,20.0,11111222 
ADCP,ioos:station:wmo:42362:1,2016-10-15T03:30:00Z,27.7950,-90.6480,21.1,11111222 
ADCP,ioos:station:wmo:42362:1,2016-10-15T04:30:00Z,27.7950,-90.6480,21.7,11111222 
ADCP,ioos:station:wmo:42362:1,2016-10-15T05:30:00Z,27.7950,-90.6480,22.2,11111222 
ADCP,ioos:station:wmo:42362:1,2016-10-15T06:30:00Z,27.7950,-90.6480,21.7,11111222 
ADCP,ioos:station:wmo:42362:1,2016-10-15T07:30:00Z,27.7950,-90.6480,21.1,11111222 
ADCP,ioos:station:wmo:42362:1,2016-10-15T08:30:00Z,27.7950,-90.6480,21.7,11111222 
ADCP,ioos:station:wmo:42362:1,2016-10-15T09:30:00Z,27.7950,-90.6480,21.1,11111222 
ADCP,ioos:station:wmo:42362:1,2016-10-15T10:30:00Z,27.7950,-90.6480,21.7,11111222 
ADCP,ioos:station:wmo:42362:1,2016-10-15T11:30:00Z,27.7950,-90.6480,20.6,11111222 
ADCP,ioos:station:wmo:42362:1,2016-10-15T12:30:00Z,27.7950,-90.6480,20.6,11111222 
ADCP,ioos:station:wmo:42362:1,2016-10-15T13:30:00Z,27.7950,-90.6480,21.1,11111222 
ADCP,ioos:station:wmo:42362:1,2016-10-15T14:30:00Z,27.7950,-90.6480,21.1,11111222 
ADCP,ioos:station:wmo:42362:1,2016-10-15T15:30:00Z,27.7950,-90.6480,21.1,11111222 
ADCP,ioos:station:wmo:42362:1,2016-10-15T16:30:00Z,27.7950,-90.6480,20.6,11111222 
ADCP,ioos:station:wmo:42362:1,2016-10-15T17:30:00Z,27.7950,-90.6480,20.0,11111222 
ADCP,ioos:station:wmo:42362:1,2016-10-15T18:30:00Z,27.7950,-90.6480,20.6,11111222 
ADCP,ioos:station:wmo:42362:1,2016-10-15T19:30:00Z,27.7950,-90.6480,21.1,11111222 
ADCP,ioos:station:wmo:42362:1,2016-10-15T20:30:00Z,27.7950,-90.6480,21.1,11111222 
ADCP,ioos:station:wmo:42362:1,2016-10-15T21:30:00Z,27.7950,-90.6480,21.1,11111222 
ADCP,ioos:station:wmo:42362:1,2016-10-15T22:30:00Z,27.7950,-90.6480,20.6,11111222 
ADCP,ioos:station:wmo:42362:1,2016-10-15T23:30:00Z,27.7950,-90.6480,20.6,11111222 
ADCP,ioos:station:wmo:42362:1,2016-10-16T00:30:00Z,27.7950,-90.6480,21.1,11111222 
ADCP,ioos:station:wmo:42362:1,2016-10-16T01:30:00Z,27.7950,-90.6480,21.1,11111222 
ADCP,ioos:station:wmo:42362:1,2016-10-16T02:30:00Z,27.7950,-90.6480,20.6,11111222 
ADCP,ioos:station:wmo:42362:1,2016-10-16T03:30:00Z,27.7950,-90.6480,21.1,11111222 
ADCP,ioos:station:wmo:42362:1,2016-10-16T04:30:00Z,27.7950,-90.6480,21.1,11111222 
ADCP,ioos:station:wmo:42362:1,2016-10-16T05:30:00Z,27.7950,-90.6480,20.6,11111222 
ADCP,ioos:station:wmo:42362:1,2016-10-16T06:30:00Z,27.7950,-90.6480,20.0,11111222 
ADCP,ioos:station:wmo:42362:1,2016-10-16T07:30:00Z,27.7950,-90.6480,21.1,11111222 
ADCP,ioos:station:wmo:42362:1,2016-10-16T08:30:00Z,27.7950,-90.6480,21.7,11111222 
ADCP,ioos:station:wmo:42362:1,2016-10-16T09:30:00Z,27.7950,-90.6480,21.7,11111222 
ADCP,ioos:station:wmo:42362:1,2016-10-16T10:30:00Z,27.7950,-90.6480,22.2,11111222 
ADCP,ioos:station:wmo:42362:1,2016-10-16T11:30:00Z,27.7950,-90.6480,22.2,11111222 
ADCP,ioos:station:wmo:42362:1,2016-10-16T12:30:00Z,27.7950,-90.6480,22.2,11111222 
ADCP,ioos:station:wmo:42362:1,2016-10-16T13:30:00Z,27.7950,-90.6480,22.8,11111222 
ADCP,ioos:station:wmo:42362:1,2016-10-16T14:30:00Z,27.7950,-90.6480,22.2,11111222 
ADCP,ioos:station:wmo:42362:1,2016-10-16T15:30:00Z,27.7950,-90.6480,22.2,11111222 
ADCP,ioos:station:wmo:42362:1,2016-10-16T16:30:00Z,27.7950,-90.6480,22.8,11111222 
ADCP,ioos:station:wmo:42362:1,2016-10-16T17:30:00Z,27.7950,-90.6480,22.8,11111222 
ADCP,ioos:station:wmo:42362:1,2016-10-16T18:30:00Z,27.7950,-90.6480,22.2,11111222 
ADCP,ioos:station:wmo:42362:1,2016-10-16T19:30:00Z,27.7950,-90.6480,22.2,11111222 
ADCP,ioos:station:wmo:42362:1,2016-10-16T20:30:00Z,27.7950,-90.6480,22.2,11111222 
ADCP,ioos:station:wmo:42362:1,2016-10-16T21:30:00Z,27.7950,-90.6480,21.7,11111222 
ADCP,ioos:station:wmo:42362:1,2016-10-16T22:30:00Z,27.7950,-90.6480,21.7,11111222 
ADCP,ioos:station:wmo:42362:1,2016-10-16T23:30:00Z,27.7950,-90.6480,21.7,11111222 
ADCP,ioos:station:wmo:42362:1,2016-10-17T00:30:00Z,27.7950,-90.6480,21.7,11111222 
ADCP,ioos:station:wmo:42362:1,2016-10-17T01:30:00Z,27.7950,-90.6480,21.1,11111222 
ADCP,ioos:station:wmo:42362:1,2016-10-17T02:30:00Z,27.7950,-90.6480,21.1,11111222 
ADCP,ioos:station:wmo:42362:1,2016-10-17T03:30:00Z,27.7950,-90.6480,21.1,11111222 
ADCP,ioos:station:wmo:42362:1,2016-10-17T04:30:00Z,27.7950,-90.6480,22.2,11111222 
ADCP,ioos:station:wmo:42362:1,2016-10-17T05:30:00Z,27.7950,-90.6480,21.7,11111222 
ADCP,ioos:station:wmo:42362:1,2016-10-17T06:30:00Z,27.7950,-90.6480,21.7,11111222 
ADCP,ioos:station:wmo:42362:1,2016-10-17T07:30:00Z,27.7950,-90.6480,21.7,11111222 
ADCP,ioos:station:wmo:42362:1,2016-10-17T08:30:00Z,27.7950,-90.6480,21.1,11111222 
ADCP,ioos:station:wmo:42362:1,2016-10-17T09:30:00Z,27.7950,-90.6480,21.1,11111222 
ADCP,ioos:station:wmo:42362:1,2016-10-17T10:30:00Z,27.7950,-90.6480,20.6,11111222 
ADCP,ioos:station:wmo:42362:1,2016-10-17T11:30:00Z,27.7950,-90.6480,21.1,11111222 
ADCP,ioos:station:wmo:42362:1,2016-10-17T12:30:00Z,27.7950,-90.6480,20.6,11111222 
ADCP,ioos:station:wmo:42362:1,2016-10-17T13:30:00Z,27.7950,-90.6480,21.1,11111222 
ADCP,ioos:station:wmo:42362:1,2016-10-17T14:30:00Z,27.7950,-90.6480,21.1,11111222 
ADCP,ioos:station:wmo:42362:1,2016-10-17T15:30:00Z,27.7950,-90.6480,21.1,11111222 
ADCP,ioos:station:wmo:42362:1,2016-10-17T16:30:00Z,27.7950,-90.6480,20.6,11111222 
ADCP,ioos:station:wmo:42362:1,2016-10-17T17:30:00Z,27.7950,-90.6480,21.1,11111222 
ADCP,ioos:station:wmo:42362:1,2016-10-17T18:30:00Z,27.7950,-90.6480,21.1,11111222 
ADCP,ioos:station:wmo:42362:1,2016-10-17T19:30:00Z,27.7950,-90.6480,20.6,11111222 
ADCP,ioos:station:wmo:42362:1,2016-10-17T20:30:00Z,27.7950,-90.6480,21.1,11111222 
ADCP,ioos:station:wmo:42362:1,2016-10-17T21:30:00Z,27.7950,-90.6480,21.1,11111222 
ADCP,ioos:station:wmo:42362:1,2016-10-17T22:30:00Z,27.7950,-90.6480,21.1,11111222 
ADCP,ioos:station:wmo:42362:1,2016-10-17T23:30:00Z,27.7950,-90.6480,21.1,11111222 
ADCP,ioos:station:wmo:42362:1,2016-10-18T00:30:00Z,27.7950,-90.6480,20.6,11111222 
ADCP,ioos:station:wmo:42362:1,2016-10-18T01:30:00Z,27.7950,-90.6480,21.1,11111222 
ADCP,ioos:station:wmo:42362:1,2016-10-18T02:30:00Z,27.7950,-90.6480,20.6,11111222 
ADCP,ioos:station:wmo:42362:1,2016-10-18T03:30:00Z,27.7950,-90.6480,21.1,11111222 
ADCP,ioos:station:wmo:42362:1,2016-10-18T04:30:00Z,27.7950,-90.6480,21.7,11111222 
ADCP,ioos:station:wmo:42362:1,2016-10-18T05:30:00Z,27.7950,-90.6480,21.7,11111222 
ADCP,ioos:station:wmo:42362:1,2016-10-18T06:30:00Z,27.7950,-90.6480,21.7,11111222 
ADCP,ioos:station:wmo:42362:1,2016-10-18T07:30:00Z,27.7950,-90.6480,22.2,11111222 
ADCP,ioos:station:wmo:42362:1,2016-10-18T08:30:00Z,27.7950,-90.6480,22.2,11111222 
ADCP,ioos:station:wmo:42362:1,2016-10-18T09:30:00Z,27.7950,-90.6480,21.7,11111222 
ADCP,ioos:station:wmo:42362:1,2016-10-18T10:30:00Z,27.7950,-90.6480,22.2,11111222 
ADCP,ioos:station:wmo:42362:1,2016-10-18T11:30:00Z,27.7950,-90.6480,22.2,11111222 
ADCP,ioos:station:wmo:42362:1,2016-10-18T12:30:00Z,27.7950,-90.6480,21.7,11111222 
ADCP,ioos:station:wmo:42362:1,2016-10-18T13:30:00Z,27.7950,-90.6480,22.2,11111222 
ADCP,ioos:station:wmo:42362:1,2016-10-18T14:30:00Z,27.7950,-90.6480,22.2,11111222 
ADCP,ioos:station:wmo:42362:1,2016-10-18T16:30:00Z,27.7950,-90.6480,21.7,11111222 
ADCP,ioos:station:wmo:42362:1,2016-10-18T17:30:00Z,27.7950,-90.6480,22.2,11111222 
ADCP,ioos:station:wmo:42362:1,2016-10-18T18:30:00Z,27.7950,-90.6480,22.2,11111222 
ADCP,ioos:station:wmo:42362:1,2016-10-18T19:30:00Z,27.7950,-90.6480,22.2,11111222 
ADCP,ioos:station:wmo:42362:1,2016-10-18T20:30:00Z,27.7950,-90.6480,21.7,11111222 
ADCP,ioos:station:wmo:42362:1,2016-10-18T21:30:00Z,27.7950,-90.6480,21.7,11111222 
ADCP,ioos:station:wmo:42362:1,2016-10-18T22:30:00Z,27.7950,-90.6480,21.7,11111222 
ADCP,ioos:station:wmo:42362:1,2016-10-18T23:30:00Z,27.7950,-90.6480,21.1,11111222 
ADCP,ioos:station:wmo:42362:1,2016-10-19T00:30:00Z,27.7950,-90.6480,21.7,11111222 
ADCP,ioos:station:wmo:42362:1,2016-10-19T01:30:00Z,27.7950,-90.6480,21.7,11111222 
ADCP,ioos:station:wmo:42362:1,2016-10-19T02:30:00Z,27.7950,-90.6480,21.7,11111222 
ADCP,ioos:station:wmo:42362:1,2016-10-19T03:30:00Z,27.7950,-90.6480,21.7,11111222 
ADCP,ioos:station:wmo:42362:1,2016-10-19T04:30:00Z,27.7950,-90.6480,21.7,11111222 
ADCP,ioos:station:wmo:42362:1,2016-10-19T05:30:00Z,27.7950,-90.6480,21.1,11111222 
ADCP,ioos:station:wmo:42362:1,2016-10-19T06:30:00Z,27.7950,-90.6480,21.7,11111222 
ADCP,ioos:station:wmo:42362:1,2016-10-19T07:30:00Z,27.7950,-90.6480,21.1,11111222 
ADCP,ioos:station:wmo:42362:1,2016-10-19T08:30:00Z,27.7950,-90.6480,21.1,11111222 
ADCP,ioos:station:wmo:42362:1,2016-10-19T09:30:00Z,27.7950,-90.6480,21.7,11111222 
ADCP,ioos:station:wmo:42362:1,2016-10-19T10:30:00Z,27.7950,-90.6480,21.1,11111222 
ADCP,ioos:station:wmo:42362:1,2016-10-19T11:30:00Z,27.7950,-90.6480,21.1,11111222 
ADCP,ioos:station:wmo:42362:1,2016-10-19T12:30:00Z,27.7950,-90.6480,20.6,11111222 
ADCP,ioos:station:wmo:42362:1,2016-10-19T13:30:00Z,27.7950,-90.6480,20.6,11111222 
ADCP,ioos:station:wmo:42362:1,2016-10-19T14:30:00Z,27.7950,-90.6480,20.6,11111222 
ADCP,ioos:station:wmo:42362:1,2016-10-19T15:30:00Z,27.7950,-90.6480,20.6,11111222 
ADCP,ioos:station:wmo:42362:1,2016-10-19T16:30:00Z,27.7950,-90.6480,20.6,11111222 
ADCP,ioos:station:wmo:42362:1,2016-10-19T17:30:00Z,27.7950,-90.6480,20.0,11111222 
ADCP,ioos:station:wmo:42362:1,2016-10-19T18:30:00Z,27.7950,-90.6480,20.0,11111222 
ADCP,ioos:station:wmo:42362:1,2016-10-19T19:30:00Z,27.7950,-90.6480,20.0,11111222 
ADCP,ioos:station:wmo:42362:1,2016-10-19T20:30:00Z,27.7950,-90.6480,20.0,11111222 
ADCP,ioos:station:wmo:42362:1,2016-10-19T21:30:00Z,27.7950,-90.6480,20.0,11111222 
ADCP,ioos:station:wmo:42362:1,2016-10-19T22:30:00Z,27.7950,-90.6480,20.6,11111222 
ADCP,ioos:station:wmo:42362:1,2016-10-19T23:30:00Z,27.7950,-90.6480,20.6,11111222 
ADCP,ioos:station:wmo:42362:1,2016-10-20T00:30:00Z,27.7950,-90.6480,20.6,11111222 
ADCP,ioos:station:wmo:42362:1,2016-10-20T01:30:00Z,27.7950,-90.6480,19.4,11111222 
ADCP,ioos:station:wmo:42362:1,2016-10-20T02:30:00Z,27.7950,-90.6480,20.0,11111222 
ADCP,ioos:station:wmo:42362:1,2016-10-20T03:30:00Z,27.7950,-90.6480,20.6,11111222 
ADCP,ioos:station:wmo:42362:1,2016-10-20T04:30:00Z,27.7950,-90.6480,20.6,11111222 
ADCP,ioos:station:wmo:42362:1,2016-10-20T05:30:00Z,27.7950,-90.6480,20.6,11111222 
ADCP,ioos:station:wmo:42362:1,2016-10-20T06:30:00Z,27.7950,-90.6480,21.7,11111222 
ADCP,ioos:station:wmo:42362:1,2016-10-20T07:30:00Z,27.7950,-90.6480,20.0,11111222 
ADCP,ioos:station:wmo:42362:1,2016-10-20T08:30:00Z,27.7950,-90.6480,20.0,11111222 
ADCP,ioos:station:wmo:42362:1,2016-10-20T09:30:00Z,27.7950,-90.6480,19.4,11111222 
ADCP,ioos:station:wmo:42362:1,2016-10-20T10:30:00Z,27.7950,-90.6480,19.4,11111222 
ADCP,ioos:station:wmo:42362:1,2016-10-20T11:30:00Z,27.7950,-90.6480,20.0,11111222 
ADCP,ioos:station:wmo:42362:1,2016-10-20T12:30:00Z,27.7950,-90.6480,20.0,11111222 
ADCP,ioos:station:wmo:42362:1,2016-10-20T13:30:00Z,27.7950,-90.6480,20.0,11111222 
ADCP,ioos:station:wmo:42362:1,2016-10-20T14:30:00Z,27.7950,-90.6480,19.4,11111222 
ADCP,ioos:station:wmo:42362:1,2016-10-20T15:30:00Z,27.7950,-90.6480,19.4,11111222 
ADCP,ioos:station:wmo:42362:1,2016-10-20T16:30:00Z,27.7950,-90.6480,18.9,11111222 
ADCP,ioos:station:wmo:42362:1,2016-10-20T17:30:00Z,27.7950,-90.6480,18.9,11111222 
ADCP,ioos:station:wmo:42362:1,2016-10-20T18:30:00Z,27.7950,-90.6480,18.9,11111222 
ADCP,ioos:station:wmo:42362:1,2016-10-20T19:30:00Z,27.7950,-90.6480,18.3,11111222 
ADCP,ioos:station:wmo:42362:1,2016-10-20T20:30:00Z,27.7950,-90.6480,19.4,11111222 
ADCP,ioos:station:wmo:42362:1,2016-10-20T21:30:00Z,27.7950,-90.6480,18.9,11111222 
ADCP,ioos:station:wmo:42362:1,2016-10-20T22:30:00Z,27.7950,-90.6480,18.3,11111222 
ADCP,ioos:station:wmo:42362:1,2016-10-20T23:30:00Z,27.7950,-90.6480,18.3,11111222 
ADCP,ioos:station:wmo:42362:1,2016-10-21T00:30:00Z,27.7950,-90.6480,18.3,11111222 
ADCP,ioos:station:wmo:42362:1,2016-10-21T01:30:00Z,27.7950,-90.6480,18.9,11111222 
ADCP,ioos:station:wmo:42362:1,2016-10-21T02:30:00Z,27.7950,-90.6480,18.9,11111222 
ADCP,ioos:station:wmo:42362:1,2016-10-21T03:30:00Z,27.7950,-90.6480,18.9,11111222 
ADCP,ioos:station:wmo:42362:1,2016-10-21T04:30:00Z,27.7950,-90.6480,18.9,11111222 
ADCP,ioos:station:wmo:42362:1,2016-10-21T05:30:00Z,27.7950,-90.6480,20.0,11111222 
ADCP,ioos:station:wmo:42362:1,2016-10-21T06:30:00Z,27.7950,-90.6480,20.6,11111222 
ADCP,ioos:station:wmo:42362:1,2016-10-21T07:30:00Z,27.7950,-90.6480,20.6,11111222 
ADCP,ioos:station:wmo:42362:1,2016-10-21T08:30:00Z,27.7950,-90.6480,20.0,11111222 
ADCP,ioos:station:wmo:42362:1,2016-10-21T09:30:00Z,27.7950,-90.6480,21.7,11111222 
ADCP,ioos:station:wmo:42362:1,2016-10-21T10:30:00Z,27.7950,-90.6480,21.7,11111222 
ADCP,ioos:station:wmo:42362:1,2016-10-21T11:30:00Z,27.7950,-90.6480,20.0,11111222 
ADCP,ioos:station:wmo:42362:1,2016-10-21T12:30:00Z,27.7950,-90.6480,19.4,11111222 
ADCP,ioos:station:wmo:42362:1,2016-10-21T13:30:00Z,27.7950,-90.6480,18.9,11111222 
ADCP,ioos:station:wmo:42362:1,2016-10-21T14:30:00Z,27.7950,-90.6480,17.2,11111222 
ADCP,ioos:station:wmo:42362:1,2016-10-21T15:30:00Z,27.7950,-90.6480,16.1,11111222 
ADCP,ioos:station:wmo:42362:1,2016-10-21T16:30:00Z,27.7950,-90.6480,15.6,11111222 
ADCP,ioos:station:wmo:42362:1,2016-10-21T17:30:00Z,27.7950,-90.6480,15.0,11111222 
ADCP,ioos:station:wmo:42362:1,2016-10-21T18:30:00Z,27.7950,-90.6480,15.6,11111222 
ADCP,ioos:station:wmo:42362:1,2016-10-21T19:30:00Z,27.7950,-90.6480,14.4,11111222 
ADCP,ioos:station:wmo:42362:1,2016-10-21T20:30:00Z,27.7950,-90.6480,13.9,11111222 
ADCP,ioos:station:wmo:42362:1,2016-10-21T21:30:00Z,27.7950,-90.6480,13.3,11111222 
ADCP,ioos:station:wmo:42362:1,2016-10-21T22:30:00Z,27.7950,-90.6480,11.1,11111222 
ADCP,ioos:station:wmo:42362:1,2016-10-21T23:30:00Z,27.7950,-90.6480,12.2,11111222 
ADCP,ioos:station:wmo:42362:1,2016-10-22T00:30:00Z,27.7950,-90.6480,11.1,11111222 
ADCP,ioos:station:wmo:42362:1,2016-10-22T01:30:00Z,27.7950,-90.6480,12.2,11111222 
ADCP,ioos:station:wmo:42362:1,2016-10-22T02:30:00Z,27.7950,-90.6480,10.6,11111222 
ADCP,ioos:station:wmo:42362:1,2016-10-22T03:30:00Z,27.7950,-90.6480,11.1,11111222 
ADCP,ioos:station:wmo:42362:1,2016-10-22T04:30:00Z,27.7950,-90.6480,11.1,11111222 
ADCP,ioos:station:wmo:42362:1,2016-10-22T05:30:00Z,27.7950,-90.6480,11.7,11111222 
ADCP,ioos:station:wmo:42362:1,2016-10-22T06:30:00Z,27.7950,-90.6480,11.7,11111222 
ADCP,ioos:station:wmo:42362:1,2016-10-22T07:30:00Z,27.7950,-90.6480,11.1,11111222 
ADCP,ioos:station:wmo:42362:1,2016-10-22T08:30:00Z,27.7950,-90.6480,11.1,11111222 
ADCP,ioos:station:wmo:42362:1,2016-10-22T09:30:00Z,27.7950,-90.6480,11.7,11111222 
ADCP,ioos:station:wmo:42362:1,2016-10-22T10:30:00Z,27.7950,-90.6480,11.7,11111222 
ADCP,ioos:station:wmo:42362:1,2016-10-22T11:30:00Z,27.7950,-90.6480,11.7,11111222 
ADCP,ioos:station:wmo:42362:1,2016-10-22T15:30:00Z,27.7950,-90.6480,11.7,11111222 
ADCP,ioos:station:wmo:42362:1,2016-10-22T16:30:00Z,27.7950,-90.6480,12.2,11111222 
ADCP,ioos:station:wmo:42362:1,2016-10-22T17:30:00Z,27.7950,-90.6480,10.6,11111222 
ADCP,ioos:station:wmo:42362:1,2016-10-22T18:30:00Z,27.7950,-90.6480,10.0,11111222 